Location: Palomar Mountain Lodge
(33.3110°N, 116.8495°W)
Time: 04:24:11
(UTC-07:00)

Cosmos 1553 Rocket - Pass Details

Date: 14 June 2018
Orbit: 943 x 1007 km, 82.9° (Epoch: 18 August)

Event Time Altitude Azimuth Distance (km) Brightness Sun altitude
Exits shadow 22:55:30 75° 154° (SSE) 978 3.7 -27.4°
Maximum altitude 22:55:59 83° 95° (E) 957 3.8 -27.4°
Drops below altitude 10° 23:02:04 10° 8° (N) 2,662 6.9 -28.0°
Sets 23:04:33 0° 8° (N) 3,609 7.8 -28.3°
